CW1729 Weather Reports


Display with metric or nautical units.
time (UTC)temp
F
wind
direction
speed
MPH
gust
MPH
rain 1hr
in
rain 24hr
in
rain mn
in
humidity
%
barometer
mb
20170922023212 70 47 0.0 0.0 0.00 0.00 0.00 94 1013.4
20170922022712 70 319 0.0 0.0 0.00 0.00 0.00 93 1013.4
20170922022212 70 319 0.0 0.0 0.00 0.00 0.00 93 1013.3
20170922021712 71 319 0.0 0.0 0.00 0.00 0.00 92 1013.3
20170922021211 71 319 0.0 0.0 0.00 0.00 0.00 92 1013.3
20170922020712 71 319 0.0 0.0 0.00 0.00 0.00 92 1013.3
20170922020211 71 319 0.0 0.0 0.00 0.00 0.00 92 1013.3
20170922015711 71 319 0.0 0.0 0.00 0.00 0.00 92 1013.3
20170922015211 71 319 0.0 0.0 0.00 0.00 0.00 92 1013.3
20170922014711 71 319 0.0 0.0 0.00 0.00 0.00 91 1013.3
20170922014211 71 319 0.0 0.0 0.00 0.00 0.00 91 1013.3
20170922013711 71 319 0.0 0.0 0.00 0.00 0.00 91 1013.2
20170922013211 71 319 0.0 0.0 0.00 0.00 0.00 91 1013.2
20170922012710 72 319 0.0 0.0 0.00 0.00 0.00 90 1013.2
20170922012210 72 319 0.0 0.0 0.00 0.00 0.00 90 1013.2
20170922011710 72 319 0.0 0.0 0.00 0.00 0.00 90 1013.2
20170922011240 72 319 0.0 0.0 0.00 0.00 0.00 90 1013.2
20170922010740 72 319 0.0 0.0 0.00 0.00 0.00 90 1013.2
20170922010239 72 319 0.0 0.0 0.00 0.00 0.00 89 1013.2
20170922005709 72 319 0.0 0.0 0.00 0.00 0.00 89 1013.2
20170922005240 72 319 0.0 0.0 0.00 0.00 0.00 88 1013.1
20170922004709 72 319 0.0 0.0 0.00 0.00 0.00 88 1013.1
20170922004209 72 319 0.0 0.0 0.00 0.00 0.00 88 1013.1
20170922003739 73 319 0.0 0.0 0.00 0.00 0.00 86 1013.1
20170922003209 73 319 0.0 0.0 0.00 0.00 0.00 86 1013.1
20170922002738 73 319 0.0 0.0 0.00 0.00 0.00 86 1013.1
20170922002239 74 319 0.0 0.0 0.00 0.00 0.00 83 1012.9
20170922001738 74 319 0.0 0.0 0.00 0.00 0.00 83 1012.9
20170922001238 74 319 0.0 0.0 0.00 0.00 0.00 83 1012.9
20170922000738 74 319 0.0 0.0 0.00 0.00 0.00 83 1013.0
20170922000238 74 319 0.0 0.0 0.00 0.00 0.00 83 1013.0
20170921235738 75 319 0.0 0.0 0.00 0.00 0.00 83 1013.0
20170921235208 75 319 0.0 0.0 0.00 0.00 0.00 81 1012.8
20170921234709 75 319 0.0 0.0 0.00 0.00 0.00 80 1012.8
20170921234207 75 319 0.0 0.0 0.00 0.00 0.00 80 1012.8
20170921233737 76 319 0.0 0.0 0.00 0.00 0.00 80 1012.7
20170921233207 76 319 0.0 0.0 0.00 0.00 0.00 74 1012.7
20170921232737 77 319 0.0 0.0 0.00 0.00 0.00 74 1012.7
20170921232237 77 319 0.0 0.0 0.00 0.00 0.00 74 1012.7
20170921231737 78 319 0.0 0.0 0.00 0.00 0.00 74 1012.7
20170921231237 78 319 0.0 0.0 0.00 0.00 0.00 74 1012.7
20170921230736 78 319 0.0 0.0 0.00 0.00 0.00 74 1012.7
20170921230236 78 319 0.0 0.0 0.00 0.00 0.00 74 1012.7
20170921225736 79 319 0.0 0.0 0.00 0.00 0.00 73 1012.7
20170921225236 79 319 0.0 0.0 0.00 0.00 0.00 73 1012.7
20170921224736 79 319 0.0 0.0 0.00 0.00 0.00 72 1012.7
20170921224235 80 319 0.0 0.0 0.00 0.00 0.00 72 1012.7
20170921223735 80 319 0.0 0.0 0.00 0.00 0.00 71 1012.7
20170921223235 80 319 0.0 0.0 0.00 0.00 0.00 71 1012.7
20170921222735 81 319 0.0 0.0 0.00 0.00 0.00 69 1012.7
20170921222235 81 319 0.0 0.0 0.00 0.00 0.00 68 1012.6
20170921221735 81 319 0.0 1.0 0.00 0.00 0.00 68 1012.6
20170921221235 81 319 0.0 1.0 0.00 0.00 0.00 66 1012.6
20170921220734 81 319 0.0 1.0 0.00 0.00 0.00 66 1012.7
20170921220234 81 319 1.0 1.0 0.00 0.00 0.00 66 1012.7
20170921215735 81 319 0.0 2.0 0.00 0.00 0.00 66 1012.7
20170921215234 81 319 1.0 2.0 0.00 0.00 0.00 63 1012.6
20170921214734 82 318 1.0 2.0 0.00 0.00 0.00 63 1012.6
20170921214234 82 319 2.0 5.0 0.00 0.00 0.00 63 1012.6
20170921213733 82 328 0.0 5.0 0.00 0.00 0.00 63 1012.5
20170921213233 82 328 5.0 5.0 0.00 0.00 0.00 63 1012.5
20170921212733 83 285 0.0 3.0 0.00 0.00 0.00 63 1012.5
20170921212233 83 312 0.0 3.0 0.00 0.00 0.00 62 1012.5
20170921211733 83 289 0.0 3.0 0.00 0.00 0.00 61 1012.5
20170921211233 83 306 1.0 3.0 0.00 0.00 0.00 60 1012.5
20170921210733 83 333 2.0 3.0 0.00 0.00 0.00 60 1012.6
20170921210233 83 309 0.0 3.0 0.00 0.00 0.00 60 1012.6
20170921205732 83 311 1.0 5.0 0.00 0.00 0.00 60 1012.6
20170921205232 83 315 0.0 5.0 0.00 0.00 0.00 60 1012.6
20170921204732 83 322 2.0 5.0 0.00 0.00 0.00 59 1012.6
20170921204232 83 305 3.0 5.0 0.00 0.00 0.00 62 1012.6
20170921203732 83 326 3.0 8.0 0.00 0.00 0.00 62 1012.6
20170921203232 83 296 5.0 8.0 0.00 0.00 0.00 63 1012.6
20170921202732 83 301 8.0 8.0 0.00 0.00 0.00 63 1012.6
20170921202231 83 282 6.0 6.0 0.00 0.00 0.00 63 1012.4
20170921201731 84 296 2.0 6.0 0.00 0.00 0.00 63 1012.4
20170921201231 84 299 2.0 6.0 0.00 0.00 0.00 63 1012.4
20170921200731 84 319 1.0 6.0 0.00 0.00 0.00 63 1012.5
20170921200231 84 330 2.0 3.0 0.00 0.00 0.00 63 1012.5
20170921195731 83 292 0.0 8.0 0.00 0.00 0.00 63 1012.5
20170921195230 83 311 1.0 8.0 0.00 0.00 0.00 63 1012.6
20170921194730 84 322 0.0 6.0 0.00 0.00 0.00 63 1012.6
20170921194231 84 289 2.0 6.0 0.00 0.00 0.00 63 1012.6
20170921193731 83 328 1.0 6.0 0.00 0.00 0.00 65 1012.6
20170921193230 83 335 0.0 6.0 0.00 0.00 0.00 63 1012.6
20170921192730 83 322 2.0 4.0 0.00 0.00 0.00 62 1012.6
20170921192230 83 340 2.0 5.0 0.00 0.00 0.00 62 1012.7
20170921191730 83 342 2.0 6.0 0.00 0.00 0.00 62 1012.7
20170921191230 83 323 5.0 6.0 0.00 0.00 0.00 62 1012.7
20170921190729 83 320 1.0 7.0 0.00 0.00 0.00 62 1012.7
20170921190229 83 274 1.0 7.0 0.00 0.00 0.00 62 1012.7
20170921185729 83 280 5.0 8.0 0.00 0.00 0.00 63 1012.7
20170921185229 83 280 5.0 8.0 0.00 0.00 0.00 63 1012.8
20170921184729 83 289 1.0 6.0 0.00 0.00 0.00 63 1012.8
20170921184229 82 302 1.0 5.0 0.00 0.00 0.00 64 1012.8
20170921183728 82 328 0.0 5.0 0.00 0.00 0.00 64 1012.9
20170921183228 82 315 2.0 8.0 0.00 0.00 0.00 64 1012.9
20170921182728 82 323 4.0 8.0 0.00 0.00 0.00 64 1012.9
20170921182228 83 330 1.0 6.0 0.00 0.00 0.00 62 1012.9
20170921181727 83 325 2.0 5.0 0.00 0.00 0.00 61 1012.9
20170921181228 84 272 5.0 5.0 0.00 0.00 0.00 61 1012.9
20170921180727 83 346 2.0 6.0 0.00 0.00 0.00 62 1013.0
20170921180229 84 333 1.0 6.0 0.00 0.00 0.00 62 1013.0
20170921175727 83 294 0.0 7.0 0.00 0.00 0.00 62 1013.0
20170921175227 83 330 2.0 7.0 0.00 0.00 0.00 62 1013.1
20170921174727 83 329 0.0 6.0 0.00 0.00 0.00 62 1013.1
20170921174227 83 319 2.0 6.0 0.00 0.00 0.00 63 1013.1
20170921173727 83 329 5.0 6.0 0.00 0.00 0.00 64 1013.2
20170921173226 83 336 1.0 6.0 0.00 0.00 0.00 64 1013.2
20170921172726 83 320 3.0 8.0 0.00 0.00 0.00 64 1013.2
20170921172226 83 295 2.0 8.0 0.00 0.00 0.00 64 1013.2
20170921171727 83 335 4.0 5.0 0.00 0.00 0.00 65 1013.2
20170921171226 83 281 3.0 6.0 0.00 0.00 0.00 66 1013.2
20170921170726 83 256 3.0 6.0 0.00 0.00 0.00 68 1013.2
20170921170226 83 313 2.0 2.0 0.00 0.00 0.00 68 1013.2
20170921165725 82 337 2.0 6.0 0.00 0.00 0.00 68 1013.2
20170921165225 82 323 2.0 6.0 0.00 0.00 0.00 68 1013.4
20170921164725 82 275 6.0 7.0 0.00 0.00 0.00 68 1013.4
20170921164225 82 285 2.0 7.0 0.00 0.00 0.00 68 1013.4
20170921163725 83 315 0.0 3.0 0.00 0.00 0.00 66 1013.4
20170921163225 83 285 0.0 2.0 0.00 0.00 0.00 66 1013.4
20170921162724 83 330 1.0 2.0 0.00 0.00 0.00 66 1013.4
20170921162225 83 289 2.0 2.0 0.00 0.00 0.00 66 1013.6
20170921161724 83 325 0.0 2.0 0.00 0.00 0.00 66 1013.6
20170921161224 83 226 0.0 3.0 0.00 0.00 0.00 66 1013.6
20170921160724 83 291 0.0 3.0 0.00 0.00 0.00 63 1013.7
20170921160224 83 292 0.0 0.0 0.00 0.00 0.00 63 1013.7
20170921155724 82 354 0.0 2.0 0.00 0.00 0.00 66 1013.7
20170921155224 82 308 0.0 2.0 0.00 0.00 0.00 66 1013.7
20170921154723 82 350 0.0 1.0 0.00 0.00 0.00 66 1013.7
20170921154224 82 304 0.0 3.0 0.00 0.00 0.00 66 1013.7
20170921153723 82 295 1.0 3.0 0.00 0.00 0.00 67 1013.8
20170921153223 81 1 0.0 1.0 0.00 0.00 0.00 67 1013.8
20170921152723 81 3 0.0 0.0 0.00 0.00 0.00 67 1013.8
20170921152223 81 326 0.0 0.0 0.00 0.00 0.00 70 1013.8
20170921151723 81 326 0.0 0.0 0.00 0.00 0.00 70 1013.8
20170921151222 81 326 0.0 1.0 0.00 0.00 0.00 70 1013.8
20170921150722 81 323 0.0 1.0 0.00 0.00 0.00 70 1013.9
20170921150222 81 313 0.0 1.0 0.00 0.00 0.00 70 1013.9
20170921145722 81 323 1.0 1.0 0.00 0.00 0.00 73 1013.9
20170921145222 80 329 0.0 0.0 0.00 0.00 0.00 73 1013.9
20170921144722 80 328 0.0 0.0 0.00 0.00 0.00 73 1013.9
20170921144221 80 6 0.0 1.0 0.00 0.00 0.00 73 1013.9
20170921143722 79 349 0.0 2.0 0.00 0.00 0.00 76 1014.0
20170921143222 79 92 1.0 2.0 0.00 0.00 0.00 76 1014.0
20170921142722 79 78 0.0 3.0 0.00 0.00 0.00 76 1014.0
20170921142221 78 92 0.0 3.0 0.00 0.00 0.00 76 1014.0
20170921141721 78 100 0.0 2.0 0.00 0.00 0.00 97 1014.0
20170921141220 77 93 0.0 2.0 0.00 0.00 0.00 97 1014.0
20170921140720 77 109 0.0 0.0 0.00 0.00 0.00 97 1014.1
20170921140220 77 97 0.0 0.0 0.00 0.00 0.00 97 1014.1
20170921135720 75 96 0.0 0.0 0.00 0.00 0.00 97 1014.1
20170921135221 75 100 0.0 0.0 0.00 0.00 0.00 97 1014.3
20170921134720 74 51 0.0 0.0 0.00 0.00 0.00 97 1014.3
20170921134220 74 17 0.0 0.0 0.00 0.00 0.00 97 1014.3
20170921133720 73 27 0.0 0.0 0.00 0.00 0.00 97 1014.2
20170921133220 72 25 0.0 0.0 0.00 0.00 0.00 97 1014.2
20170921132719 71 25 0.0 0.0 0.00 0.00 0.00 97 1014.2
20170921132219 71 25 0.0 0.0 0.00 0.00 0.00 97 1014.2
20170921131719 70 25 0.0 0.0 0.00 0.00 0.00 97 1014.2
20170921131219 70 25 0.0 0.0 0.00 0.00 0.00 99 1014.2
20170921130719 69 25 0.0 0.0 0.00 0.00 0.00 99 1014.2
20170921130219 69 44 0.0 0.0 0.00 0.00 0.00 100 1014.2
20170921125718 69 80 0.0 0.0 0.00 0.00 0.00 100 1014.2
20170921125219 69 97 0.0 0.0 0.00 0.00 0.00 100 1014.1
20170921124718 69 325 0.0 0.0 0.00 0.00 0.00 100 1014.1
20170921124218 68 326 0.0 0.0 0.00 0.00 0.00 100 1014.1
20170921123718 68 328 0.0 0.0 0.00 0.00 0.00 100 1014.0
20170921123218 68 328 0.0 0.0 0.00 0.00 0.00 100 1014.0
20170921122718 68 311 0.0 0.0 0.00 0.00 0.00 100 1014.0
20170921122218 68 311 0.0 0.0 0.00 0.00 0.00 100 1014.0
20170921121717 68 311 0.0 0.0 0.00 0.00 0.00 100 1014.0
20170921121217 67 311 0.0 0.0 0.00 0.00 0.00 100 1014.0
20170921120717 67 311 0.0 0.0 0.00 0.00 0.00 100 1014.1
20170921120217 67 311 0.0 0.0 0.00 0.00 0.00 100 1014.1
20170921115717 66 311 0.0 0.0 0.00 0.00 0.00 100 1014.1
20170921115216 65 311 0.0 0.0 0.00 0.00 0.00 100 1013.9
20170921114717 65 311 0.0 0.0 0.00 0.00 0.00 100 1013.9
20170921114216 65 311 0.0 0.0 0.00 0.00 0.00 100 1013.9
20170921113716 65 311 0.0 0.0 0.00 0.00 0.00 100 1013.8
20170921113216 65 311 0.0 0.0 0.00 0.00 0.00 100 1013.8
20170921112716 65 311 0.0 0.0 0.00 0.00 0.00 100 1013.8
20170921112216 65 311 0.0 0.0 0.00 0.00 0.00 100 1013.8
20170921111715 65 311 0.0 0.0 0.00 0.00 0.00 100 1013.8
20170921111215 65 311 0.0 0.0 0.00 0.00 0.00 100 1013.8
20170921110715 65 311 0.0 0.0 0.00 0.00 0.00 100 1013.7
20170921110215 65 311 0.0 0.0 0.00 0.00 0.00 100 1013.7
20170921105715 65 311 0.0 0.0 0.00 0.00 0.00 100 1013.7
20170921105215 65 311 0.0 0.0 0.00 0.00 0.00 100 1013.4
20170921104715 65 311 0.0 0.0 0.00 0.00 0.00 100 1013.4
20170921104214 65 311 0.0 0.0 0.00 0.00 0.00 100 1013.4
20170921103715 65 311 0.0 0.0 0.00 0.00 0.00 100 1013.2
20170921103214 65 311 0.0 0.0 0.00 0.00 0.00 100 1013.2
20170921102714 66 311 0.0 0.0 0.00 0.00 0.00 100 1013.2
20170921102214 66 311 0.0 0.0 0.00 0.00 0.00 100 1013.0
20170921101714 66 311 0.0 0.0 0.00 0.00 0.00 100 1013.0
20170921101213 66 311 0.0 0.0 0.00 0.00 0.00 100 1013.0
20170921100713 66 311 0.0 0.0 0.00 0.00 0.00 100 1012.7
20170921100213 66 311 0.0 0.0 0.00 0.00 0.00 100 1012.7
20170921095713 66 311 0.0 0.0 0.00 0.00 0.00 100 1012.7
20170921095214 66 311 0.0 0.0 0.00 0.00 0.00 100 1012.5
20170921094713 66 311 0.0 0.0 0.00 0.00 0.00 100 1012.5
20170921094213 66 311 0.0 0.0 0.00 0.00 0.00 100 1012.5
20170921093714 66 311 0.0 0.0 0.00 0.00 0.00 100 1012.2
20170921093213 66 311 0.0 0.0 0.00 0.00 0.00 100 1012.2
20170921092712 66 311 0.0 0.0 0.00 0.00 0.00 100 1012.2
20170921092213 66 311 0.0 0.0 0.00 0.00 0.00 100 1012.2
20170921091712 66 311 0.0 0.0 0.00 0.00 0.00 100 1012.2
20170921091212 66 311 0.0 0.0 0.00 0.00 0.00 100 1012.2
20170921090712 66 311 0.0 0.0 0.00 0.00 0.00 100 1012.0
20170921090212 65 311 0.0 0.0 0.00 0.00 0.00 100 1012.0
20170921085712 65 311 0.0 0.0 0.00 0.00 0.00 100 1012.0
20170921085212 65 311 0.0 0.0 0.00 0.00 0.00 100 1011.8
20170921084711 65 311 0.0 0.0 0.00 0.00 0.00 100 1011.8
20170921084212 65 311 0.0 0.0 0.00 0.00 0.00 100 1011.8
20170921083711 65 311 0.0 0.0 0.00 0.00 0.00 100 1011.6
20170921083211 66 311 0.0 0.0 0.00 0.00 0.00 100 1011.6
20170921082711 65 311 0.0 0.0 0.00 0.00 0.00 100 1011.6
20170921082210 65 311 0.0 0.0 0.00 0.00 0.00 100 1011.6
20170921081710 66 311 0.0 0.0 0.00 0.00 0.00 100 1011.6
20170921081210 66 311 0.0 0.0 0.00 0.00 0.00 100 1011.6
20170921080710 66 311 0.0 0.0 0.00 0.00 0.00 100 1011.6
20170921080210 66 311 0.0 0.0 0.00 0.00 0.00 100 1011.6
20170921075710 66 311 0.0 0.0 0.00 0.00 0.00 100 1011.6
20170921075210 66 311 0.0 0.0 0.00 0.00 0.00 100 1011.6
20170921074709 66 311 0.0 0.0 0.00 0.00 0.00 100 1011.6
20170921074239 66 311 0.0 0.0 0.00 0.00 0.00 100 1011.6
20170921073709 66 311 0.0 0.0 0.00 0.00 0.00 100 1011.7
20170921073209 66 311 0.0 0.0 0.00 0.00 0.00 100 1011.7
20170921072709 66 311 0.0 0.0 0.00 0.00 0.00 100 1011.7
20170921072209 66 311 0.0 0.0 0.00 0.00 0.00 100 1011.9
20170921071738 66 311 0.0 0.0 0.00 0.00 0.00 100 1011.9
20170921071209 66 311 0.0 0.0 0.00 0.00 0.00 100 1011.9
20170921070708 66 311 0.0 0.0 0.00 0.00 0.00 100 1011.8
20170921070208 66 311 0.0 0.0 0.00 0.00 0.00 100 1011.8
20170921065708 66 311 0.0 0.0 0.00 0.00 0.00 100 1011.8
20170921065208 66 311 0.0 0.0 0.00 0.00 0.00 100 1011.8
20170921064708 66 311 0.0 0.0 0.00 0.00 0.00 100 1011.8
20170921064208 66 311 0.0 0.0 0.00 0.00 0.00 100 1011.8
20170921063707 66 311 0.0 0.0 0.00 0.00 0.00 100 1011.8
20170921063207 66 311 0.0 0.0 0.00 0.00 0.00 100 1011.8
20170921062707 66 311 0.0 0.0 0.00 0.00 0.00 99 1011.8
20170921062207 66 311 0.0 0.0 0.00 0.00 0.00 99 1012.0
20170921061737 66 311 0.0 0.0 0.00 0.00 0.00 99 1012.0
20170921061237 66 311 0.0 0.0 0.00 0.00 0.00 99 1012.0
20170921060706 67 311 0.0 0.0 0.00 0.00 0.00 99 1012.1
20170921060206 67 311 0.0 0.0 0.00 0.00 0.00 99 1012.1
20170921055706 67 311 0.0 0.0 0.00 0.00 0.00 99 1012.1
20170921055236 67 311 0.0 0.0 0.00 0.00 0.00 99 1012.1
20170921054736 67 311 0.0 0.0 0.00 0.00 0.00 99 1012.1
20170921054236 67 311 0.0 0.0 0.00 0.00 0.00 99 1012.1
20170921053705 67 311 0.0 0.0 0.00 0.00 0.00 99 1012.0
20170921053236 67 311 0.0 0.0 0.00 0.00 0.00 99 1012.0
20170921052736 67 311 0.0 0.0 0.00 0.00 0.00 99 1012.0
20170921052235 67 311 0.0 0.0 0.00 0.00 0.00 98 1011.8
20170921051735 67 311 0.0 0.0 0.00 0.00 0.00 98 1011.8
20170921051235 67 311 0.0 0.0 0.00 0.00 0.00 98 1011.8
20170921050735 67 311 0.0 0.0 0.00 0.00 0.00 98 1011.8
20170921050235 67 311 0.0 0.0 0.00 0.00 0.00 98 1011.8
20170921045735 67 311 0.0 0.0 0.00 0.00 0.00 98 1011.8
20170921045235 67 311 0.0 0.0 0.00 0.00 0.00 98 1011.7
20170921044734 67 311 0.0 0.0 0.00 0.00 0.00 98 1011.7
20170921044234 67 311 0.0 0.0 0.00 0.00 0.00 98 1011.7
20170921043734 68 311 0.0 0.0 0.00 0.00 0.00 97 1011.7
20170921043234 68 311 0.0 0.0 0.00 0.00 0.00 97 1011.7
20170921042734 68 311 0.0 0.0 0.00 0.00 0.00 97 1011.7
20170921042234 68 311 0.0 0.0 0.00 0.00 0.00 97 1011.7
20170921041733 68 311 0.0 0.0 0.00 0.00 0.00 97 1011.7
20170921041233 68 311 0.0 0.0 0.00 0.00 0.00 97 1011.7
20170921040733 68 311 0.0 0.0 0.00 0.00 0.00 97 1011.7
20170921040231 68 311 0.0 0.0 0.00 0.00 0.00 97 1011.7
20170921035730 68 311 0.0 0.0 0.00 0.00 0.00 97 1011.7
20170921035231 68 311 0.0 0.0 0.00 0.00 0.00 97 1011.6
20170921034731 68 311 0.0 0.0 0.00 0.00 0.00 97 1011.6
20170921034230 68 311 0.0 0.0 0.00 0.00 0.00 97 1011.6
20170921033730 68 311 0.0 0.0 0.00 0.00 0.00 97 1011.3
20170921033230 68 311 0.0 0.0 0.00 0.00 0.00 97 1011.3
20170921032730 68 311 0.0 0.0 0.00 0.00 0.00 97 1011.3
20170921032229 68 311 0.0 0.0 0.00 0.00 0.00 96 1011.4
20170921031730 68 311 0.0 0.0 0.00 0.00 0.00 96 1011.4
20170921031229 69 311 0.0 0.0 0.00 0.00 0.00 96 1011.4
20170921030729 69 311 0.0 0.0 0.00 0.00 0.00 96 1011.3
20170921030229 69 311 0.0 0.0 0.00 0.00 0.00 96 1011.3
20170921025729 69 311 0.0 0.0 0.00 0.00 0.00 96 1011.3
20170921025229 69 311 0.0 0.0 0.00 0.00 0.00 96 1011.5
20170921024729 69 311 0.0 0.0 0.00 0.00 0.00 96 1011.5
20170921024229 69 311 0.0 0.0 0.00 0.00 0.00 96 1011.5
20170921023729 69 311 0.0 0.0 0.00 0.00 0.00 96 1011.4